EHI
18 16 14 13 13 13 13 13 12 10 9 8 8 8 9 11 14 16 16 14 13 13 12 9 7 5 4 4 4 5 5 4 2 2 2 2 3 5 7 7 5 4 4
17 16 16 16 15 14 13 12 11 9 8 7 7 9 11 12 14 17 17 14 13 13 12 9 8 7 7 7 6 5 4 3 3 3 3 4 4 5 7 7 6 5 5
19 18 19 20 19 15 12 11 9 7 6 5 7 9 10 11 12 15 15 15 14 12 11 9 8 9 9 9 9 7 5 4 4 4 4 5 5 6 7 7 6 7 7
23 23 23 22 20 16 13 12 10 8 6 6 6 8 8 8 9 12 13 14 13 12 10 9 8 8 9 9 10 9 8 6 5 5 4 5 5 6 8 7 7 9 10
27 25 24 21 20 18 16 14 13 11 9 7 6 6 7 7 8 10 12 12 12 12 11 10 8 7 8 9 9 8 8 7 6 5 5 6 6 7 8 7 7 9 11
26 25 22 21 20 19 18 16 15 14 12 8 5 4 5 6 7 9 10 11 12 13 13 11 8 7 8 8 7 5 5 5 5 6 6 7 9 11 10 8 7 9 11
20 19 18 18 18 18 16 16 15 15 14 10 6 5 5 5 6 6 7 8 11 12 13 12 9 8 8 8 6 4 3 3 4 7 8 9 11 12 12 9 8 9 10
13 13 13 14 14 14 14 13 13 14 14 12 10 8 7 6 6 5 4 6 9 10 10 11 11 8 6 6 6 4 5 5 5 6 8 9 9 10 10 10 11 10 10
9 9 9 10 10 11 12 13 13 13 14 13 11 10 9 8 7 4 4 8 9 9 8 9 10 8 6 5 5 6 8 9 7 5 5 4 4 4 6 9 11 11 10
7 7 6 6 6 8 10 11 12 14 15 14 12 12 13 12 8 4 5 10 11 10 9 10 8 7 6 6 6 6 7 8 8 6 4 3 3 3 4 8 11 11 10
6 6 5 4 4 5 7 8 10 12 15 14 14 14 15 15 11 6 5 9 11 11 12 12 10 6 4 4 4 5 5 5 7 8 7 7 7 6 6 8 10 11 11
6 5 5 5 4 4 5 6 8 10 11 12 12 13 13 14 11 6 4 5 7 10 12 12 9 5 2 2 2 2 3 3 4 6 7 8 8 8 8 10 11 11 11
6 5 5 6 6 5 5 5 6 7 8 9 9 9 9 9 8 5 3 2 3 6 9 9 6 2 1 0 1 1 2 3 3 4 6 7 7 8 10 11 12 12 11
7 6 6 7 7 6 6 5 5 5 6 6 6 6 6 6 6 5 5 3 3 4 6 6 5 3 2 2 3 3 4 5 4 4 6 6 7 9 11 12 11 10 9
7 6 5 5 6 6 6 5 4 4 4 4 4 4 4 5 5 5 5 5 5 5 5 6 8 8 7 6 7 7 8 8 7 7 7 7 7 9 10 11 10 9 7
6 6 4 4 4 5 5 4 3 3 3 3 3 3 3 3 3 3 3 4 4 5 5 7 10 11 10 9 9 9 10 10 9 8 8 8 8 8 9 9 9 8 7
6 5 4 3 3 3 4 3 3 2 2 3 3 2 2 2 1 1 1 1 1 2 3 6 8 10 10 10 9 9 9 9 9 8 7 7 7 7 8 8 8 8 8
6 4 3 3 3 4 3 3 3 3 3 3 2 1 1 1 0 0 0 1 1 1 3 4 6 7 8 9 9 8 7 7 6 6 6 6 6 7 7 7 6 7 7
6 4 3 3 4 4 4 3 3 3 3 3 2 1 0 0 1 1 1 2 2 2 2 3 3 3 4 5 6 5 5 4 4 5 6 6 6 6 6 6 5 5 5
6 5 3 2 3 3 3 3 3 4 4 4 3 2 1 1 2 2 2 2 2 2 1 1 1 0 1 2 3 3 3 3 3 4 5 6 6 6 5 4 4 3 3
6 4 3 2 2 3 3 3 4 5 6 5 4 2 1 2 2 2 2 2 1 1 0 0 0 0 0 1 2 3 3 3 3 4 4 5 5 5 4 4 3 4 4
6 6 5 4 3 3 3 3 4 5 5 5 3 1 1 1 1 1 2 2 1 1 1 1 0 0 0 1 1 2 2 2 3 4 4 3 3 3 3 3 3 3 3
8 8 7 6 5 4 3 2 2 2 3 4 2 1 0 0 0 1 1 1 1 1 1 2 1 0 0 0 0 1 1 1 1 1 1 1 1 1 1 1 1 1 1
7 7 6 6 5 4 2 1 1 1 2 3 1 0 0 0 0 0 0 0 0 0 1 2 1 0 0 0 0 0 0 0 0 0 0 0 0 0 0 0 0 0 0
4 5 4 4 4 3 1 0 0 1 2 2 1 0 0 0 0 0 0 0 0 0 0 1 1 0 0 0 0 0 0 0 0 0 0 0 0 0 0 0 0 0 0
2 3 4 3 3 2 1 0 1 2 2 1 0 0 0 0 0 0 0 0 0 0 0 0 0 0 0 0 0 0 0 0 0 0 0 0 0 0 0 0 0 0 0
Wind_Speed
3 3 2 2 2 2 2 1 1 1 1 2 2 2 2 2 2 3 3 3 3 3 3 3 4 5 4 4 3 4 4 4 5 5 3 2 2 5 2 4 6 6 6
4 4 3 3 2 2 2 2 1 2 2 1 2 2 3 3 3 3 4 4 4 4 4 4 5 4 4 5 4 5 4 4 5 6 5 3 3 4 3 5 5 5 5
4 4 4 3 3 2 2 2 1 2 2 2 2 2 3 3 3 4 4 5 5 5 5 4 5 5 5 4 5 5 5 5 5 6 6 3 4 3 4 5 5 4 6
4 4 3 3 2 2 2 2 2 2 2 2 2 3 3 3 4 4 5 5 5 5 5 5 5 5 5 6 5 5 5 6 5 6 6 5 4 4 4 4 4 4 5
3 3 3 3 2 2 2 2 2 2 2 2 3 3 3 3 3 5 6 5 5 5 5 5 5 4 5 6 6 5 5 6 6 6 6 5 5 4 4 5 5 5 5
2 2 2 2 2 2 2 2 2 2 2 2 3 3 3 3 4 5 7 6 5 5 6 6 6 4 5 6 7 8 8 7 7 6 6 6 6 6 5 5 5 5 5
1 0 1 1 1 1 1 1 2 2 2 3 3 3 3 2 3 4 6 7 6 5 5 5 6 5 5 6 7 9 9 10 9 8 9 8 7 6 6 7 6 6 6
1 0 1 1 1 1 2 2 2 2 3 3 3 3 4 2 2 4 7 7 6 5 4 4 6 6 6 7 8 7 7 7 8 8 8 8 7 6 6 7 7 7 8
1 0 1 1 2 2 2 3 3 3 3 4 3 4 4 3 2 4 7 6 5 5 5 4 5 6 5 7 8 8 8 7 7 8 8 8 7 6 6 6 6 6 6
1 1 1 1 2 2 3 3 3 4 4 4 3 4 4 4 2 2 6 6 5 5 5 5 2 5 6 5 7 7 8 8 8 6 7 8 8 7 8 7 7 6 6
1 1 1 1 2 2 3 3 3 4 4 4 4 4 4 3 2 1 3 5 5 6 5 5 3 2 4 4 6 7 8 9 8 7 5 5 5 4 5 5 5 6 6
1 2 2 2 3 2 2 3 3 4 4 4 4 4 3 2 2 2 3 5 7 6 5 5 4 3 4 5 5 6 7 7 6 5 4 4 4 4 4 4 4 5 5
2 2 2 3 3 3 3 3 3 3 4 4 3 4 3 3 2 2 3 5 7 6 5 5 7 6 6 5 6 7 6 4 4 4 5 4 4 4 4 3 3 4 5
2 2 2 2 3 2 3 3 3 3 3 4 4 4 4 3 4 4 4 4 5 6 6 5 7 7 6 5 5 4 3 3 4 4 5 5 4 3 3 3 3 3 4
2 2 3 2 2 2 2 2 3 2 3 4 4 5 5 4 4 6 6 5 6 6 7 6 5 4 3 3 3 3 3 2 3 4 4 4 4 4 3 3 3 3 3
2 2 2 2 2 2 2 1 0 2 2 2 3 5 4 4 6 6 7 7 8 7 6 4 4 4 4 4 4 3 3 3 3 4 4 4 4 4 4 3 3 3 3
3 3 2 2 2 3 3 3 2 2 5 6 5 4 4 6 6 7 8 8 7 5 3 4 4 4 4 4 4 4 4 3 3 4 4 4 4 4 4 4 4 4 4
3 2 2 2 2 3 3 3 3 4 3 3 3 5 4 5 6 7 7 6 3 2 3 4 4 4 4 4 4 4 4 3 3 4 4 4 4 4 4 4 4 4 4
3 2 1 2 2 2 3 3 3 4 4 4 4 1 2 4 6 6 5 4 4 4 4 4 4 4 4 4 4 4 4 4 4 4 4 4 4 4 4 4 4 4 4
1 1 2 2 2 2 3 3 3 3 4 4 4 4 4 4 4 2 3 4 4 4 4 4 4 4 4 4 4 4 4 4 4 4 4 4 4 4 4 4 4 3 3
1 1 2 3 2 2 3 3 3 4 4 4 4 3 4 5 5 5 4 4 4 4 4 5 5 4 4 4 4 4 5 4 4 4 4 4 4 4 4 3 4 4 4
2 1 1 2 2 2 3 3 3 4 4 4 4 3 1 4 5 5 4 4 4 4 5 5 5 4 4 4 4 4 4 4 4 4 4 4 3 4 4 3 3 3 3
2 1 1 1 1 1 2 3 3 4 4 4 4 4 3 4 4 4 4 4 4 4 4 4 5 4 4 3 4 4 4 4 4 5 4 4 4 3 3 3 4 4 4
2 2 1 1 2 2 3 3 3 3 3 4 4 4 4 4 4 4 4 4 4 4 4 4 4 5 6 5 4 3 4 5 6 4 5 5 4 4 3 3 4 3 3
2 2 2 2 2 3 3 3 3 4 4 4 4 4 4 4 4 4 4 4 4 4 4 4 4 4 5 5 5 4 5 5 5 5 4 4 4 4 4 4 3 2 2
2 2 2 2 1 2 3 3 3 3 4 4 4 4 4 4 4 3 4 4 4 4 4 3 4 5 5 4 4 5 3 3 4 6 5 3 3 2 3 2 2 2 1
Wind_Direction
191 191 200 201 204 208 217 230 246 279 294 293 299 305 307 310 311 304 305 308 293 292 290 288 286 296 294 290 281 278 274 273 280 287 285 281 270 284 281 263 248 236 214
185 189 194 201 205 209 205 222 235 254 264 275 290 293 292 301 302 297 297 298 293 292 292 293 290 285 283 285 291 284 281 278 274 284 286 274 259 262 270 269 261 246 246
185 190 189 195 200 214 220 226 231 243 263 280 288 293 299 301 299 296 294 289 286 286 287 286 288 290 284 286 283 283 280 272 265 270 272 276 268 261 263 260 265 263 258
188 189 191 200 212 227 234 240 237 242 258 279 286 288 288 290 296 297 294 292 290 286 285 284 284 287 288 286 275 274 278 279 269 265 268 266 261 257 261 266 264 249 253
191 193 195 200 211 228 235 246 251 253 256 270 282 289 289 282 311 313 298 288 286 285 283 281 279 283 300 292 294 295 284 276 273 269 269 268 266 267 265 268 271 269 253
175 185 200 208 214 223 236 242 250 257 269 273 279 286 293 319 353 330 303 293 286 285 287 286 279 260 265 259 268 278 283 280 284 283 277 279 282 277 282 278 278 280 277
149 193 279 249 248 262 268 261 257 256 259 266 273 279 285 315 341 317 300 287 286 289 289 291 294 300 294 287 266 249 250 248 256 272 280 282 282 286 287 278 280 284 284
137 162 273 279 284 270 265 269 270 267 264 266 272 280 282 305 329 306 299 274 284 287 286 289 293 299 306 302 289 283 274 258 246 248 268 277 281 288 280 278 275 269 266
75 0 310 308 306 298 293 284 279 273 268 264 262 268 275 290 320 301 296 280 281 283 282 282 288 294 313 308 288 287 285 279 251 242 254 267 284 279 275 279 275 270 271
21 346 321 305 294 293 298 292 285 275 272 274 277 275 276 288 315 292 291 283 289 287 280 273 267 284 305 301 286 289 290 293 294 270 249 249 252 245 232 249 266 270 275
345 330 309 297 276 277 286 291 295 290 293 290 288 282 280 292 288 267 277 286 294 291 292 289 302 285 279 280 278 286 296 301 294 284 267 260 258 259 248 246 261 274 279
271 292 295 297 294 299 290 292 294 290 280 277 281 286 289 288 308 285 248 263 292 293 294 299 312 300 272 268 270 288 295 295 290 290 285 281 280 281 280 276 276 280 284
238 251 275 291 295 297 284 282 278 277 287 296 300 304 313 327 328 250 242 253 263 276 292 300 300 283 268 255 248 259 269 278 289 294 297 295 293 295 290 278 267 266 270
243 255 258 270 283 291 292 298 300 309 311 313 318 314 316 320 330 332 312 289 268 267 282 278 252 245 248 265 267 251 257 288 292 291 293 296 295 289 283 287 285 281 281
248 257 264 277 299 298 305 323 312 335 330 315 318 317 320 322 341 328 309 310 310 312 304 292 292 288 281 278 276 281 284 280 280 289 293 295 298 299 298 297 294 292 288
254 257 265 277 286 285 290 281 2 253 220 236 270 297 314 327 321 313 303 298 298 294 287 288 295 292 290 289 282 280 276 282 288 291 292 293 294 294 298 298 293 289 291
265 266 273 283 281 284 289 293 289 229 217 224 230 243 267 294 302 301 296 288 281 273 269 293 303 301 294 291 289 290 293 290 288 283 286 289 294 295 295 297 295 293 292
262 254 259 272 284 290 293 295 297 302 300 286 225 208 236 263 278 287 290 289 286 270 295 301 303 303 304 306 305 301 297 298 290 288 290 289 292 293 292 293 295 297 296
269 270 270 282 281 286 290 291 296 304 307 312 317 285 234 264 256 258 262 288 309 310 313 314 315 315 316 316 316 312 301 293 292 288 286 288 289 286 286 288 287 286 285
259 333 299 283 284 289 292 300 310 314 310 311 315 329 331 314 307 311 288 300 304 310 312 312 312 313 313 313 313 310 303 299 296 291 295 292 288 287 286 286 291 291 286
229 192 223 255 273 292 297 301 308 304 306 311 315 338 329 310 316 320 314 313 311 311 310 309 306 305 306 310 312 311 307 305 304 300 297 295 292 287 287 293 295 292 296
240 241 246 276 300 314 314 309 302 301 307 310 313 321 275 291 314 318 320 324 324 319 315 313 310 313 319 322 317 313 311 313 315 311 304 299 297 294 291 289 291 294 291
245 247 257 287 304 308 289 301 306 312 316 313 311 316 320 319 319 321 323 329 329 323 319 319 318 323 333 329 324 324 325 328 327 322 312 301 296 294 295 294 286 281 280
245 256 266 274 285 290 296 307 313 319 315 311 312 314 317 320 320 325 323 327 329 326 327 330 328 331 335 334 332 337 354 346 330 315 311 303 299 300 299 297 295 302 296
263 266 272 273 282 292 301 309 317 323 321 315 312 314 318 319 320 324 326 325 323 324 330 330 328 330 330 329 334 346 0 344 323 315 300 291 295 299 297 293 294 298 288
275 276 280 281 288 297 299 302 308 315 313 313 312 314 312 312 317 330 334 332 328 327 326 328 332 333 328 324 339 346 341 324 315 304 292 288 293 304 305 296 300 298 295